格洛纳斯-724 COSMOS 1778 [GLONASS]

导读

COSMOS 1778(GLONASS),由独立国家联合体(CIS)于1986年9月16日发射,是苏联格洛纳斯卫星导航系统的组网卫星。该卫星由俄罗斯列舍特涅夫卫星信息系统研发制造,采用三轴稳定模式,运行于近地中轨道,倾角约64.7°,为全球导航定位服务提供支持,目前已退役,推动了全球卫星导航系统的早期发展。

Basic Information
目录编号:
16961
目录名称:
COSMOS 1778 (GLONASS)
国际标识:
1986-071A
轨道中心:
EARTH
卫星名称:
格洛纳斯-724
卫星全名:
格洛纳斯-724 COSMOS 1778 [GLONASS]
卫星状态:
在轨 (已飞行14518 天)
发射日期:
1986-09-16 UTC
国别 :
俄罗斯(独联体) (CIS)
星等 :
--
Orbit Information
数据来源 国际轨道数据 AOE轨道数据
星历时间 2026-06-16T12:56:37+0800
8小时前
查看轨道信息
2026-06-14T04:00:00+0800
2天前
查看轨道信息
半长轴 25507.985km 25508.001km
偏心率 0.0003918 0.0003929
轨道倾角 64.895° 64.894°
近地点辐角 228.467° 229.210°
升交点赤经 72.373° 72.454°
平近点角 317.202° 296.243°
近地点 19119.853km 19119.841km
远地点 19139.843km 19139.887km
周期 675.731分钟 675.732分钟
每日圈数 2.131025 2.131023
Detailed Information
平衡模式:
三轴稳定
覆盖范围:
全球
运营商:
列舍特涅夫卫星信息系统
运营商所在国:
俄罗斯
制造商(研发单位):
列舍特涅夫卫星信息系统
制造商所在国:
俄罗斯
使用方式:
暂无
Satellite Introduction
格洛纳斯(GLONASS )是苏联/俄罗斯研制卫星导航系统。标准配置为24颗卫星,其中18颗卫星就能保证该系统为俄罗斯境内用户提供全部服务。该卫星已退役。
2D Orbit Map
3D Orbit Map
Orbit Altitude Analysis Chart
Orbit Inclination Analysis Chart
Orbit Comprehensive Analysis Chart
View Comprehensive Chart